Flag for Argentina Weather past 2 weeks in Ushuaia, Tierra del Fuego, Argentina

Now
36 °F

Scattered showers. Scattered clouds.


Feels Like: 23 °F
Forecast: 34 / 38 °F
Wind: 29 mph from Southwest

Location: Ushuaia Aerodrome


UV Index: 0 (Low)

Visibility: N/A


Pressure: 29.36 "Hg

Humidity: 93%

Dew point: 34 °F

Location of UshuaiaLocation

Historic Weather in Ushuaia

°F

Ushuaia temperature yesterday

Maximum temperature yesterday: 45 °F (at 1:00 PM)
Minimum temperature yesterday: 32 °F (at 1:00 AM)
Average temperature yesterday: 39 °F

Past Weeks' High & Low Weather Summary

 TemperatureHumidityPressure
High55 °F (Apr 7, 4:00 PM)100% (Apr 6, 8:00 AM)30.15 "Hg (Apr 6, 8:00 AM)
Low32 °F (Apr 17, 1:00 AM)44% (Apr 10, 8:00 AM)28.80 "Hg (Apr 16, 5:00 AM)
Average44 °F78%29.62 "Hg
* Reported Apr 3 11:00 AM — Apr 18 11:00 AM, Ushuaia, Weather by CustomWeather, © 2014

Note: Actual official high and low records may vary slightly from our data, if they occured in-between our weather recording intervals... More about our weather records

Advertising

Historic Weather Conditions — Data for Previous 24 hours

 ConditionsComfort  
Time TempWeatherWind HumidityBarometerVisibility
11:00 AM
Apr 18
36 °FScattered showers. Broken clouds.23 mph87%29.36 "HgN/A
10:00 AM34 °FScattered showers. Partly sunny.25 mph93%29.33 "Hg5 mi
9:00 AM34 °FLight snow. Overcast.23 mph93%29.27 "Hg2 mi
8:30 AM32 °FLight snow. Overcast.17 mph87%29.27 "Hg1 mi
8:00 AM34 °FLight rain. Overcast.21 mph75%29.24 "Hg5 mi
7:00 AM32 °FPassing clouds.3 mph80%29.18 "HgN/A
6:00 AM36 °FPassing clouds.9 mph87%29.15 "HgN/A
5:00 AM36 °FPassing clouds.8 mph87%29.12 "HgN/A
4:00 AM36 °FPartly cloudy.12 mph87%29.12 "HgN/A
3:00 AM36 °FPassing clouds.9 mph87%29.12 "HgN/A
2:00 AM37 °FPassing clouds.8 mph81%29.09 "HgN/A
1:00 AM37 °FPassing clouds.21 mph81%29.09 "HgN/A
12:00 AM37 °FPassing clouds.15 mph70%29.06 "HgN/A
11:00 PM
Apr 17
37 °FPassing clouds.14 mph81%29.12 "HgN/A
10:00 PM39 °FScattered showers. Passing clouds.26 mph81%29.03 "HgN/A
9:00 PM39 °FScattered showers. Passing clouds.23 mph81%29.03 "HgN/A
8:00 PM39 °FScattered showers. Partly cloudy.24 mph81%29.00 "HgN/A
7:00 PM41 °FPartly cloudy.21 mph81%28.97 "HgN/A
6:00 PM43 °FPartly cloudy.21 mph71%28.94 "HgN/A
5:00 PM45 °FBroken clouds.25 mph66%28.94 "HgN/A
4:00 PM45 °FBroken clouds.16 mph66%28.97 "HgN/A
3:00 PM45 °FBroken clouds.6 mph61%28.97 "HgN/A
2:00 PM45 °FScattered clouds.21 mph53%28.97 "HgN/A
1:00 PM45 °FScattered clouds.21 mph53%29.00 "HgN/A
12:00 PM43 °FScattered clouds.7 mph61%29.00 "HgN/A
Weather by CustomWeather, © 2014

See weather overview